22P/Kopff (2022)

Japanese version
Home page
Updated on September 2, 2023

---------------------------------------------------------------------

* Profile

* Pictures

* Orbital Elements

Epoch 2023 Sept. 13.0 TT = JDT 2460200.5
T 2022 Mar. 18.27745 TT                                 Rudenko
q   1.5465600            (2000.0)            P               Q
n   0.15470424     Peri.  162.96367     +0.23675703     +0.96896092
a   3.4366441      Node   120.68063     -0.90075963     +0.24635366
e   0.5499796      Incl.    4.74482     -0.36411289     +0.02060592
P   6.37
>From 5015 observations 2008 Jan. 30-2023 Aug. 14, mean residual 0".7.
     Nongravitational parameters A1 = +0.05, A2 = -0.0394.

* Finding Charts

* Magnitudes Graph

        H = 14.5  G = 0.15               [    ,-525]  (             - 2020 Oct.  9)
        m1 = 5.3 + 5 log d + 21.0 log r  [-525, 550]  (2020 Oct.  9 - 2023 Sept.19)
        H = 14.5  G = 0.15               [ 550,    ]  (2023 Sept.19 -             )

---------------------------------------------------------------------

The orbital elements are published on M.P.E.C. 2023-Q150.
The charts are made with StellaNavigator Ver.10 (AstroArts).
The magnitudes graphs are made with Comet for Windows.

---------------------------------------------------------------------

Copyright(C) Seiichi Yoshida (comet@aerith.net). All rights reserved.